| time (UTC) | temp C | wind direction | speed KPH | gust KPH | rain 1hr cm | rain 24hr cm | rain mn cm | humidity % | barometer mb |
| 20260902171504 | 18 | 216 | 4.8 | 11.3 | 0.00 | 0.00 | 0.00 | 91 | 1012.8 |
| 20260902170004 | 18 | 206 | 6.4 | 14.5 | 0.00 | 0.00 | 0.00 | 91 | 1012.7 |
| 20260902164503 | 18 | 198 | 6.4 | 17.7 | 0.00 | 0.00 | 0.00 | 91 | 1012.6 |
| 20260902163003 | 18 | 209 | 9.7 | 22.5 | 0.00 | 0.00 | 0.00 | 90 | 1012.7 |
| 20260902161503 | 18 | 225 | 6.4 | 19.3 | 0.00 | 0.00 | 0.00 | 90 | 1012.7 |
| 20260902160004 | 18 | 173 | 8.0 | 19.3 | 0.00 | 0.00 | 0.00 | 90 | 1012.8 |
| 20260902154501 | 18 | 191 | 11.3 | 22.5 | 0.00 | 0.00 | 0.00 | 90 | 1012.9 |
| 20260902153001 | 18 | 206 | 8.0 | 24.1 | 0.00 | 0.00 | 0.00 | 90 | 1012.9 |
| 20260902151609 | 18 | 211 | 9.7 | 32.2 | 0.00 | 0.00 | 0.00 | 89 | 1013.1 |
| 20260902150100 | 18 | 181 | 6.4 | 25.7 | 0.00 | 0.00 | 0.00 | 88 | 1013.2 |
| 20260902144600 | 18 | 188 | 9.7 | 19.3 | 0.00 | 0.00 | 0.00 | 88 | 1013.2 |
| 20260902143059 | 18 | 234 | 9.7 | 20.9 | 0.00 | 0.00 | 0.00 | 87 | 1013.3 |
| 20260902141558 | 18 | 199 | 8.0 | 24.1 | 0.00 | 0.00 | 0.00 | 87 | 1013.3 |
| 20260902140058 | 18 | 185 | 8.0 | 17.7 | 0.00 | 0.00 | 0.00 | 87 | 1013.3 |
| 20260902134557 | 18 | 194 | 6.4 | 16.1 | 0.00 | 0.00 | 0.00 | 86 | 1013.3 |
| 20260902133106 | 18 | 256 | 4.8 | 14.5 | 0.00 | 0.00 | 0.00 | 84 | 1013.5 |
| 20260902131555 | 19 | 209 | 4.8 | 14.5 | 0.00 | 0.00 | 0.00 | 87 | 1013.4 |
| 20260902130053 | 18 | 252 | 4.8 | 16.1 | 0.00 | 0.00 | 0.00 | 86 | 1013.6 |
| 20260902124549 | 18 | 222 | 4.8 | 12.9 | 0.00 | 0.00 | 0.00 | 86 | 1013.6 |
| 20260902123053 | 18 | 217 | 4.8 | 16.1 | 0.00 | 0.00 | 0.00 | 87 | 1013.7 |
| 20260902121546 | 18 | 227 | 6.4 | 17.7 | 0.00 | 0.00 | 0.00 | 87 | 1013.8 |
| 20260902120047 | 18 | 219 | 6.4 | 11.3 | 0.00 | 0.00 | 0.00 | 87 | 1013.8 |
| 20260902114552 | 17 | 237 | 6.4 | 12.9 | 0.00 | 0.00 | 0.00 | 87 | 1014.0 |
| 20260902113044 | 17 | 221 | 4.8 | 12.9 | 0.00 | 0.00 | 0.00 | 86 | 1014.0 |
| 20260902111547 | 17 | 241 | 4.8 | 16.1 | 0.00 | 0.00 | 0.00 | 86 | 1014.1 |
| 20260902110057 | 17 | 235 | 4.8 | 14.5 | 0.00 | 0.00 | 0.00 | 86 | 1014.2 |
| 20260902104540 | 17 | 235 | 4.8 | 14.5 | 0.00 | 0.00 | 0.00 | 87 | 1014.2 |
| 20260902103041 | 17 | 251 | 6.4 | 17.7 | 0.00 | 0.00 | 0.00 | 87 | 1014.3 |
| 20260902101541 | 17 | 242 | 6.4 | 12.9 | 0.00 | 0.00 | 0.00 | 86 | 1014.2 |
| 20260902100037 | 17 | 244 | 6.4 | 14.5 | 0.00 | 0.00 | 0.00 | 86 | 1014.2 |
| 20260902094543 | 17 | 219 | 3.2 | 14.5 | 0.00 | 0.00 | 0.00 | 87 | 1014.2 |
| 20260902093035 | 16 | 219 | 3.2 | 16.1 | 0.00 | 0.00 | 0.00 | 88 | 1014.0 |
| 20260902091532 | 16 | 252 | 3.2 | 14.5 | 0.00 | 0.00 | 0.00 | 89 | 1014.0 |
| 20260902090031 | 16 | 289 | 6.4 | 17.7 | 0.00 | 0.00 | 0.00 | 89 | 1013.8 |
| 20260902084537 | 16 | 221 | 6.4 | 16.1 | 0.00 | 0.00 | 0.00 | 88 | 1013.6 |
| 20260902083027 | 16 | 268 | 6.4 | 16.1 | 0.00 | 0.00 | 0.00 | 89 | 1013.7 |
| 20260902081526 | 16 | 248 | 4.8 | 16.1 | 0.00 | 0.00 | 0.00 | 88 | 1013.9 |
| 20260902080024 | 16 | 263 | 4.8 | 16.1 | 0.00 | 0.00 | 0.00 | 89 | 1013.7 |
| 20260902074523 | 16 | 255 | 4.8 | 14.5 | 0.00 | 0.00 | 0.00 | 88 | 1013.8 |
| 20260902073021 | 16 | 232 | 4.8 | 14.5 | 0.00 | 0.00 | 0.00 | 89 | 1013.7 |
| 20260902071531 | 16 | 238 | 1.6 | 16.1 | 0.00 | 0.00 | 0.00 | 89 | 1013.6 |
| 20260902070017 | 15 | 267 | 4.8 | 16.1 | 0.00 | 0.00 | 0.00 | 89 | 1013.5 |
| 20260902064617 | 16 | 277 | 3.2 | 16.1 | 0.00 | 0.00 | 0.00 | 89 | 1013.4 |
| 20260902063028 | 15 | 262 | 4.8 | 12.9 | 0.00 | 0.00 | 0.00 | 89 | 1013.3 |
| 20260902061514 | 15 | 277 | 4.8 | 14.5 | 0.00 | 0.00 | 0.00 | 89 | 1013.2 |
| 20260902060011 | 15 | 212 | 1.6 | 12.9 | 0.00 | 0.00 | 0.00 | 89 | 1013.2 |
| 20260902054519 | 15 | 289 | 1.6 | 9.7 | 0.00 | 0.00 | 0.00 | 89 | 1013.1 |
| 20260902053018 | 15 | 267 | 1.6 | 11.3 | 0.00 | 0.00 | 0.00 | 89 | 1012.9 |
| 20260902051509 | 15 | 259 | 1.6 | 11.3 | 0.00 | 0.00 | 0.00 | 89 | 1012.9 |
| 20260902050007 | 15 | 245 | 4.8 | 12.9 | 0.00 | 0.00 | 0.00 | 89 | 1012.8 |
| 20260902044503 | 15 | 313 | 1.6 | 12.9 | 0.00 | 0.00 | 0.00 | 89 | 1012.6 |
| 20260902043002 | 15 | 275 | 1.6 | 11.3 | 0.00 | 0.00 | 0.00 | 89 | 1012.5 |
| 20260902041501 | 15 | 275 | 1.6 | 9.7 | 0.00 | 0.00 | 0.00 | 89 | 1012.5 |
| 20260902034558 | 16 | 298 | 1.6 | 8.0 | 0.00 | 0.00 | 0.00 | 89 | 1012.4 |
| 20260902033107 | 16 | 242 | 1.6 | 8.0 | 0.00 | 0.00 | 0.00 | 89 | 1012.2 |
| 20260902031557 | 16 | 225 | 1.6 | 12.9 | 0.00 | 0.00 | 0.00 | 88 | 1012.3 |
| 20260902030057 | 16 | 273 | 1.6 | 12.9 | 0.00 | 0.00 | 0.00 | 88 | 1012.4 |
| 20260902024555 | 16 | 296 | 1.6 | 14.5 | 0.00 | 0.00 | 0.00 | 88 | 1012.2 |
| 20260902023055 | 16 | 237 | 0.0 | 4.8 | 0.00 | 0.00 | 0.00 | 89 | 1012.2 |
| 20260902021602 | 16 | 260 | 1.6 | 8.0 | 0.00 | 0.00 | 0.00 | 88 | 1012.1 |
| 20260902020053 | 16 | 311 | 1.6 | 17.7 | 0.00 | 0.00 | 0.00 | 88 | 1012.2 |
| 20260902014552 | 16 | 311 | 1.6 | 11.3 | 0.00 | 0.00 | 0.00 | 88 | 1012.1 |
| 20260902013053 | 16 | 288 | 3.2 | 16.1 | 0.00 | 0.00 | 0.00 | 88 | 1012.1 |
| 20260902011551 | 16 | 301 | 4.8 | 20.9 | 0.00 | 0.00 | 0.00 | 88 | 1011.9 |
| 20260902003100 | 16 | 298 | 1.6 | 16.1 | 0.00 | 0.00 | 0.00 | 87 | 1011.8 |
| 20260901234558 | 16 | 306 | 1.6 | 11.3 | 0.00 | 0.00 | 0.00 | 87 | 1011.6 |
| 20260901233049 | 16 | 293 | 0.0 | 11.3 | 0.00 | 0.00 | 0.00 | 86 | 1011.6 |
| 20260901231549 | 16 | 289 | 1.6 | 8.0 | 0.00 | 0.00 | 0.00 | 86 | 1011.6 |
| 20260901230049 | 17 | 283 | 0.0 | 12.9 | 0.00 | 0.00 | 0.00 | 87 | 1011.5 |
| 20260901224547 | 16 | 288 | 1.6 | 6.4 | 0.00 | 0.00 | 0.00 | 89 | 1011.5 |
| 20260901223044 | 16 | 265 | 0.0 | 0.0 | 0.00 | 0.00 | 0.00 | 89 | 1011.5 |
| 20260901221606 | 16 | 285 | 0.0 | 0.0 | 0.00 | 0.00 | 0.00 | 89 | 1011.6 |
| 20260901220039 | 15 | 229 | 0.0 | 0.0 | 0.00 | 0.00 | 0.00 | 88 | 1011.5 |
| 20260901214538 | 14 | 206 | 0.0 | 0.0 | 0.00 | 0.00 | 0.00 | 89 | 1011.5 |
| 20260901213058 | 13 | 188 | 0.0 | 0.0 | 0.00 | 0.00 | 0.00 | 89 | 1011.4 |
| 20260901211542 | 13 | 188 | 0.0 | 0.0 | 0.00 | 0.00 | 0.00 | 90 | 1011.5 |
| 20260901210039 | 13 | 188 | 0.0 | 0.0 | 0.00 | 0.00 | 0.00 | 91 | 1011.4 |
| 20260901204535 | 13 | 188 | 0.0 | 0.0 | 0.00 | 0.00 | 0.00 | 92 | 1011.4 |
| 20260901203042 | 13 | 188 | 0.0 | 0.0 | 0.00 | 0.00 | 0.00 | 92 | 1011.4 |
| 20260901201533 | 13 | 188 | 0.0 | 1.6 | 0.00 | 0.00 | 0.00 | 92 | 1011.4 |
| 20260901200040 | 13 | 188 | 0.0 | 0.0 | 0.00 | 0.00 | 0.00 | 92 | 1011.4 |
| 20260901194529 | 14 | 188 | 0.0 | 3.2 | 0.00 | 0.00 | 0.00 | 92 | 1011.4 |
| 20260901193028 | 14 | 188 | 0.0 | 0.0 | 0.00 | 0.00 | 0.00 | 93 | 1011.4 |
| 20260901191527 | 15 | 188 | 0.0 | 0.0 | 0.00 | 0.00 | 0.00 | 93 | 1011.4 |
| 20260901190025 | 15 | 188 | 0.0 | 1.6 | 0.00 | 0.00 | 0.00 | 93 | 1011.4 |
| 20260901184532 | 15 | 189 | 0.0 | 0.0 | 0.00 | 0.00 | 0.00 | 92 | 1011.4 |
| 20260901183023 | 16 | 190 | 0.0 | 0.0 | 0.00 | 0.00 | 0.00 | 91 | 1011.2 |
| 20260901181523 | 16 | 190 | 0.0 | 0.0 | 0.00 | 0.00 | 0.00 | 92 | 1011.2 |
| 20260901180023 | 16 | 190 | 0.0 | 1.6 | 0.00 | 0.00 | 0.00 | 91 | 1011.1 |
| 20260901174522 | 16 | 190 | 0.0 | 0.0 | 0.00 | 0.00 | 0.00 | 90 | 1011.0 |
| 20260901173022 | 17 | 190 | 0.0 | 4.8 | 0.00 | 0.00 | 0.00 | 90 | 1011.0 |